Le nostre stazioni meteo in Italia

Pubblicità
Il mio iltempo24.it
Braemar, Gran Bretagna (99089): Temperatura & dewpoint: 10.01.2017 14:00:00 - 16.01.2017 14:00:00 (GMT)Braemar, Gran Bretagna (99089): Temperatura -20cm & Temperatura -100cm: 10.01.2017 14:00:00 - 16.01.2017 14:00:00 (GMT)Braemar, Gran Bretagna (99089): precipitazioni: 10.01.2017 14:00:00 - 16.01.2017 14:00:00 (GMT)
Data & Tempo tt [°C] td [°C] tt -20cm [°C] tt -100cm [°C] rr [mm]
16.01.2017 14:00:00 8,7 4,9 - - 0,0
16.01.2017 13:00:00 7,5 5,2 - - 0,0
16.01.2017 12:00:00 6,0 4,6 - - 0,0
16.01.2017 11:00:00 4,7 3,4 - - 0,0
16.01.2017 10:00:00 4,1 3,1 - - 0,0
16.01.2017 09:00:00 5,3 4,2 2,2 4,0 0,2
16.01.2017 08:00:00 5,8 4,6 - - 0,0
16.01.2017 07:00:00 6,3 5,4 - - 0,0
16.01.2017 06:00:00 5,7 4,9 - - 0,0
16.01.2017 05:00:00 5,7 5,5 - - 0,0
16.01.2017 04:00:00 4,0 3,6 - - 0,0
16.01.2017 03:00:00 4,5 4,1 - - 0,0
16.01.2017 02:00:00 6,4 6,2 - - 0,0
16.01.2017 01:00:00 3,7 3,7 - - 0,0
16.01.2017 00:00:00 3,6 3,6 - - 0,2
15.01.2017 23:00:00 2,7 2,7 - - 0,0
15.01.2017 22:00:00 1,7 1,6 - - 0,2
15.01.2017 21:00:00 1,2 1,2 - - 0,0
15.01.2017 20:00:00 1,4 1,3 - - 0,0
15.01.2017 19:00:00 1,2 1,0 - - 0,0
15.01.2017 18:00:00 2,1 1,8 - - 0,0
15.01.2017 17:00:00 3,0 2,8 - - 0,2
15.01.2017 16:00:00 4,0 3,6 - - 0,6
15.01.2017 15:00:00 4,6 4,1 - - 0,4
15.01.2017 14:00:00 4,1 3,8 - - 0,2
15.01.2017 13:00:00 4,0 4,0 - - 0,4
15.01.2017 12:00:00 3,9 3,8 - - 0,6
15.01.2017 11:00:00 4,0 4,0 - - 0,6
15.01.2017 10:00:00 3,2 2,5 - - 0,4
15.01.2017 09:00:00 5,1 3,6 2,2 4,2 0,8
15.01.2017 08:00:00 5,3 3,8 - - 1,4
15.01.2017 07:00:00 6,5 4,3 - - 1,4
15.01.2017 06:00:00 4,0 2,9 - - 7,6
15.01.2017 05:00:00 4,0 2,8 - - 0,0
15.01.2017 04:00:00 2,7 1,8 - - 0,2
15.01.2017 03:00:00 2,4 1,4 - - 0,0
15.01.2017 02:00:00 1,1 0,6 - - 0,0
15.01.2017 01:00:00 0,8 0,3 - - 0,0
15.01.2017 00:00:00 0,7 0,4 - - 0,0
14.01.2017 23:00:00 0,2 0,0 - - 0,0
14.01.2017 22:00:00 0,4 0,1 - - 0,0
14.01.2017 21:00:00 0,3 0,0 - - 0,0
14.01.2017 20:00:00 0,3 -0,3 - - 0,0
14.01.2017 19:00:00 0,9 -1,7 - - 0,0
14.01.2017 18:00:00 -0,5 -2,3 - - 0,0
14.01.2017 17:00:00 -0,1 -2,8 - - 0,0
14.01.2017 16:00:00 0,7 -3,2 - - 0,0
14.01.2017 15:00:00 1,1 -3,4 - - 0,0
14.01.2017 14:00:00 1,6 -3,2 - - 0,0
14.01.2017 13:00:00 0,8 -2,8 - - 0,0
14.01.2017 12:00:00 0,9 -2,1 - - 0,0
14.01.2017 11:00:00 -0,3 -1,6 - - 0,0
14.01.2017 10:00:00 0,0 -3,0 - - 0,0
14.01.2017 09:00:00 0,2 -2,7 2,4 4,2 0,0
14.01.2017 08:00:00 0,4 -4,1 - - 0,0
14.01.2017 07:00:00 0,5 -3,6 - - 0,0
14.01.2017 06:00:00 -0,4 -4,4 - - 0,0
14.01.2017 05:00:00 -0,4 -5,2 - - 0,0
14.01.2017 04:00:00 -0,3 -4,6 - - 0,0
14.01.2017 03:00:00 0,2 -3,1 - - 0,0
14.01.2017 02:00:00 0,7 -3,9 - - 0,0
14.01.2017 01:00:00 0,7 -3,7 - - 0,0
14.01.2017 00:00:00 0,7 -2,8 - - 0,0
13.01.2017 23:00:00 -0,8 -2,2 - - 0,0
13.01.2017 22:00:00 -1,6 -4,2 - - 0,0
13.01.2017 21:00:00 -1,8 -5,9 - - 0,0
13.01.2017 20:00:00 -4,1 -7,0 - - 0,0
13.01.2017 19:00:00 -2,9 -6,4 - - 0,0
13.01.2017 18:00:00 -1,1 -5,5 - - 0,0
13.01.2017 17:00:00 -1,2 -5,6 - - 0,0
13.01.2017 16:00:00 -1,2 -5,5 - - 0,0
13.01.2017 15:00:00 -0,8 -5,4 - - 0,0
13.01.2017 14:00:00 -0,6 -5,4 - - 0,0
13.01.2017 13:00:00 -0,4 -5,2 - - 0,0
13.01.2017 12:00:00 -0,5 -4,0 - - 0,0
13.01.2017 11:00:00 -0,4 -2,8 - - 0,0
13.01.2017 10:00:00 -0,4 -2,0 - - 0,0
13.01.2017 09:00:00 0,3 -2,9 2,7 4,4 -
13.01.2017 08:00:00 0,5 -2,8 - - 0,0
13.01.2017 07:00:00 0,5 -2,0 - - 0,0
13.01.2017 06:00:00 0,5 -0,9 - - 0,0
13.01.2017 05:00:00 0,9 -0,6 - - 0,0
13.01.2017 04:00:00 1,4 0,3 - - 0,0
13.01.2017 03:00:00 -0,3 -0,3 - - 0,0
13.01.2017 02:00:00 -1,0 -1,7 - - 0,0
13.01.2017 01:00:00 -1,2 -4,7 - - 0,0
13.01.2017 00:00:00 -1,3 -6,4 - - 0,0
12.01.2017 23:00:00 -1,5 -5,4 - - 0,0
12.01.2017 22:00:00 -0,9 -5,9 - - 0,0
12.01.2017 21:00:00 -0,6 -7,0 - - 0,0
12.01.2017 20:00:00 -0,5 -5,9 - - 0,0
12.01.2017 19:00:00 -0,7 -3,9 - - 0,0
12.01.2017 18:00:00 -0,4 -4,5 - - 0,0
12.01.2017 17:00:00 0,0 -5,1 - - 0,0
12.01.2017 16:00:00 -1,0 -4,6 - - 0,0
12.01.2017 15:00:00 -0,6 -4,0 - - 0,0
12.01.2017 14:00:00 -0,5 -4,1 - - 0,0
12.01.2017 13:00:00 -0,2 -4,9 - - 0,0
12.01.2017 12:00:00 -0,4 -4,6 - - 0,0
12.01.2017 11:00:00 -0,8 -4,3 - - 0,0
12.01.2017 10:00:00 -1,1 -4,3 - - 0,0
12.01.2017 09:00:00 -0,8 -4,3 3,2 4,5 0,0
12.01.2017 08:00:00 -1,2 -4,8 - - 0,0
12.01.2017 07:00:00 -1,5 -3,1 - - 0,0
12.01.2017 06:00:00 -1,1 -4,3 - - 0,0
12.01.2017 05:00:00 -0,6 -3,0 - - 0,0
12.01.2017 04:00:00 -1,1 -4,9 - - 0,0
12.01.2017 03:00:00 -0,6 -3,8 - - 0,0
12.01.2017 02:00:00 -0,2 -2,9 - - 0,0
12.01.2017 01:00:00 0,3 -3,7 - - 0,0
12.01.2017 00:00:00 0,1 -3,1 - - 0,0
11.01.2017 23:00:00 -0,2 -2,6 - - 0,0
11.01.2017 22:00:00 0,6 -3,3 - - 0,0
11.01.2017 21:00:00 0,4 -2,9 - - 0,0
11.01.2017 20:00:00 0,5 -3,1 - - 0,0
11.01.2017 19:00:00 0,2 -2,5 - - 0,0
11.01.2017 18:00:00 -0,2 -1,4 - - 0,0
11.01.2017 17:00:00 0,7 -3,5 - - 0,0
11.01.2017 16:00:00 0,1 -1,5 - - 0,2
11.01.2017 15:00:00 0,6 -0,9 - - 0,0
11.01.2017 14:00:00 2,3 -3,3 - - 0,0
11.01.2017 13:00:00 2,3 -2,5 - - 0,2
11.01.2017 12:00:00 2,1 -2,0 - - 0,4
11.01.2017 11:00:00 1,4 -0,4 - - 0,8
11.01.2017 10:00:00 1,8 -0,2 - - 1,6
11.01.2017 09:00:00 1,9 -0,4 3,7 4,4 0,4
11.01.2017 08:00:00 2,4 0,1 - - 0,2
11.01.2017 07:00:00 2,0 0,3 - - 0,6
11.01.2017 06:00:00 2,5 0,1 - - 0,8
11.01.2017 05:00:00 3,6 0,4 - - 1,0
11.01.2017 04:00:00 3,6 1,1 - - 0,6
11.01.2017 03:00:00 4,2 1,9 - - 1,0
11.01.2017 02:00:00 6,7 2,6 - - 0,2
11.01.2017 01:00:00 8,1 4,9 - - 0,4
11.01.2017 00:00:00 7,8 6,0 - - 0,0
10.01.2017 23:00:00 6,9 3,9 - - 0,0
10.01.2017 22:00:00 5,9 2,6 - - 0,0
10.01.2017 21:00:00 4,7 1,2 - - 0,0
10.01.2017 20:00:00 5,8 1,2 - - 0,0
10.01.2017 19:00:00 5,5 1,5 - - 0,0
10.01.2017 18:00:00 6,0 0,9 - - 0,0
10.01.2017 17:00:00 5,8 1,9 - - 0,0
10.01.2017 16:00:00 6,3 1,6 - - 0,0
10.01.2017 15:00:00 6,7 4,4 - - 0,0
10.01.2017 14:00:00 6,0 4,5 - - 0,0

tt = Temperatura
td = dewpoint
tt -20cm = Temperatura -20cm
tt -100cm = Temperatura -100cm
rr = precipitazioni

Stazioni seguenti

WeatherPro
AMSI
MeteoEarth